Home > Weather > Lincoln > Past weeks

Flag for USA Past Weather in Lincoln, Nebraska, USA — Yesterday and Last 2 Weeks

Now
62 °F

Mostly cloudy.


Feels Like: 62 °F
Forecast: 59 / 73 °F
Wind: 3 mph from North

Location: Lincoln Municipal Airport

Current Time: Aug 26, 2016 at 8:56:28 AM

Latest Report: Aug 26, 2016 at 7:54 AM


Visibility: 10 mi

Pressure: 30.15 "Hg

Humidity: 90%

Dew Point: 59 °F

Location of LincolnLocation

Past Weather in Lincoln — Graph

°F

Lincoln Temperature Yesterday

Maximum temperature yesterday: 78 °F (at 4:54 PM)
Minimum temperature yesterday: 57 °F (at 3:54 AM)
Average temperature yesterday: 66 °F

High & Low Weather Summary for the Past Weeks

 TemperatureHumidityPressure
High96 °F (Aug 11, 4:54 PM)97% (Aug 11, 11:54 PM)30.15 "Hg (Aug 11, 11:54 PM)
Low53 °F (Aug 21, 4:54 AM)33% (Aug 14, 4:54 PM)29.70 "Hg (Aug 11, 6:54 PM)
Average74 °F71%29.96 "Hg
* Reported Aug 11 7:54 AM — Aug 26 7:54 AM, Lincoln, Weather by CustomWeather, © 2016

Note: Actual official high and low records may vary slightly from our data, if they occured in-between our weather recording intervals... More about our weather records

Advertising

Lincoln Weather History for the Previous 24 Hours

Scroll right to see more
 ConditionsComfort  
Time TempWeatherWind HumidityBarometerVisibility
7:54 AM
Fri, Aug 26
62 °FMostly cloudy.3 mph90%30.15 "Hg10 mi
6:54 AM61 °FPassing clouds.3 mph90%30.15 "Hg10 mi
5:54 AM59 °FClear.6 mph93%30.14 "Hg10 mi
4:54 AM59 °FClear.3 mph90%30.13 "Hg10 mi
3:54 AM60 °FClear.No wind90%30.13 "Hg10 mi
2:54 AM58 °FClear.5 mph93%30.13 "Hg10 mi
1:54 AM60 °FClear.5 mph93%30.14 "Hg10 mi
12:54 AM60 °FClear.5 mph93%30.15 "Hg10 mi
11:54 PM
Thu, Aug 25
60 °FClear.3 mph93%30.15 "Hg10 mi
10:54 PM64 °FClear.5 mph87%30.15 "Hg10 mi
9:54 PM65 °FClear.6 mph85%30.14 "Hg10 mi
8:54 PM65 °FSunny.6 mph85%30.13 "Hg10 mi
7:54 PM70 °FSunny.8 mph76%30.11 "Hg10 mi
6:54 PM76 °FSunny.8 mph60%30.09 "Hg10 mi
5:54 PM75 °FSunny.8 mph58%30.10 "Hg10 mi
4:54 PM78 °FSunny.9 mph52%30.10 "Hg10 mi
3:54 PM77 °FSunny.9 mph56%30.12 "Hg10 mi
2:54 PM77 °FPassing clouds.9 mph54%30.13 "Hg10 mi
1:54 PM75 °FScattered clouds.8 mph58%30.13 "Hg10 mi
12:54 PM73 °FPartly sunny.7 mph62%30.14 "Hg10 mi
11:54 AM68 °FSunny.10 mph76%30.14 "Hg10 mi
10:54 AM65 °FSunny.6 mph87%30.14 "Hg10 mi
9:54 AM63 °FLight rain. Partly sunny.6 mph87%30.12 "Hg10 mi
8:54 AM61 °FOvercast.No wind87%30.13 "Hg10 mi
Weather by CustomWeather, © 2016

See weather overviewHow to use our weather pages